When you browse on this site, cookies collect data to enhance your experience and personalize the content and advertising you see.
Visit our Privacy Policy to learn more. By continuing to use the site, you agree to this use of cookies and data.
  • In Romania
  • List of Countries
  • For 7 days
  • Water Temperature
  • Satellite Maps
  • Weather Map
  • Weather Widgets
  • user-avatar
    Login

    Hourly Weather Solovo

    Today, 20 February, Wednesday

    Time Temperature Precipitation Wind Pressure Humidity
    00:00 0°C° 0 mm 5 mps 736 mmHg 91%
    01:00 0°C° 0 mm 4 mps 736 mmHg 92%
    02:00 0°C° 0 mm 5 mps 735 mmHg 93%
    03:00 0°C° 0.1 mm 5 mps 735 mmHg 93%
    04:00 0°C° 0.1 mm 4 mps 735 mmHg 92%
    05:00 0°C° 0.1 mm 4 mps 735 mmHg 92%
    06:00 0°C° 0 mm 4 mps 735 mmHg 92%
    07:00 0°C° 0 mm 4 mps 735 mmHg 91%
    08:00 0°C° 0 mm 4 mps 734 mmHg 90%
    09:00 0°C° 0.1 mm 5 mps 734 mmHg 90%
    10:00 0°C° 0.1 mm 5 mps 734 mmHg 89%
    11:00 0°C° 0.1 mm 5 mps 734 mmHg 88%
    12:00 +1°C° 0.1 mm 5 mps 734 mmHg 88%
    13:00 +1°C° 0.1 mm 5 mps 733 mmHg 88%
    14:00 +1°C° 0.1 mm 5 mps 733 mmHg 87%
    15:00 +1°C° 0.3 mm 5 mps 733 mmHg 87%
    16:00 +1°C° 0.3 mm 5 mps 732 mmHg 87%
    17:00 0°C° 0.3 mm 5 mps 732 mmHg 86%
    18:00 0°C° 0.4 mm 5 mps 732 mmHg 84%
    19:00 -1°C° 0.4 mm 5 mps 732 mmHg 81%
    20:00 -2°C° 0.4 mm 6 mps 732 mmHg 78%
    21:00 -2°C° 0.1 mm 5 mps 733 mmHg 80%
    22:00 -4°C° 0.1 mm 5 mps 733 mmHg 81%
    23:00 -5°C° 0.1 mm 5 mps 734 mmHg 82%

    Tomorrow, 21 February, Thursday

    Time Temperature Precipitation Wind Pressure Humidity
    00:00 -6°C° 0.1 mm 5 mps 734 mmHg 80%
    01:00 -8°C° 0.1 mm 6 mps 735 mmHg 77%
    02:00 -8°C° 0.1 mm 6 mps 735 mmHg 75%
    03:00 -8°C° 0.1 mm 6 mps 736 mmHg 74%
    04:00 -9°C° 0.1 mm 6 mps 736 mmHg 74%
    05:00 -9°C° 0.1 mm 7 mps 736 mmHg 74%
    06:00 -9°C° 0.1 mm 7 mps 737 mmHg 76%
    07:00 -9°C° 0.1 mm 7 mps 737 mmHg 78%
    08:00 -9°C° 0.1 mm 7 mps 738 mmHg 80%
    09:00 -8°C° 0.1 mm 7 mps 738 mmHg 77%
    10:00 -8°C° 0.1 mm 7 mps 739 mmHg 74%
    11:00 -8°C° 0.1 mm 7 mps 740 mmHg 71%
    12:00 -8°C° 0.1 mm 7 mps 741 mmHg 71%
    13:00 -8°C° 0.1 mm 6 mps 741 mmHg 70%
    14:00 -8°C° 0.1 mm 6 mps 742 mmHg 69%
    15:00 -9°C° 0 mm 6 mps 743 mmHg 70%
    16:00 -9°C° 0 mm 6 mps 744 mmHg 70%
    17:00 -10°C° 0 mm 6 mps 744 mmHg 71%
    18:00 -11°C° 0 mm 6 mps 745 mmHg 71%
    19:00 -11°C° 0 mm 5 mps 746 mmHg 72%
    20:00 -12°C° 0 mm 5 mps 747 mmHg 72%
    21:00 -12°C° 0 mm 5 mps 747 mmHg 72%
    22:00 -12°C° 0 mm 5 mps 747 mmHg 72%
    23:00 -12°C° 0 mm 4 mps 748 mmHg 72%

    Day after tomorrow, 22 February, Friday

    Time Temperature Precipitation Wind Pressure Humidity
    00:00 -12°C° 0 mm 4 mps 748 mmHg 73%
    01:00 -12°C° 0 mm 4 mps 749 mmHg 74%
    02:00 -14°C° 0 mm 4 mps 749 mmHg 75%
    03:00 -14°C° 0 mm 4 mps 750 mmHg 75%
    04:00 -14°C° 0 mm 4 mps 750 mmHg 75%
    05:00 -15°C° 0 mm 5 mps 751 mmHg 75%
    06:00 -14°C° 0 mm 5 mps 751 mmHg 74%
    07:00 -14°C° 0 mm 5 mps 752 mmHg 74%
    08:00 -14°C° 0 mm 5 mps 752 mmHg 73%
    09:00 -14°C° 0 mm 6 mps 752 mmHg 70%
    10:00 -12°C° 0 mm 6 mps 753 mmHg 67%
    11:00 -12°C° 0 mm 6 mps 753 mmHg 64%
    12:00 -12°C° 0 mm 7 mps 753 mmHg 61%
    13:00 -12°C° 0 mm 7 mps 753 mmHg 57%
    14:00 -11°C° 0 mm 7 mps 754 mmHg 53%
    15:00 -11°C° 0 mm 6 mps 754 mmHg 58%
    16:00 -11°C° 0 mm 6 mps 754 mmHg 63%
    17:00 -11°C° 0 mm 5 mps 755 mmHg 67%
    18:00 -12°C° 0 mm 5 mps 755 mmHg 68%
    19:00 -12°C° 0 mm 5 mps 756 mmHg 70%
    20:00 -13°C° 0 mm 5 mps 756 mmHg 71%
    21:00 -13°C° 0 mm 5 mps 757 mmHg 73%
    22:00 -14°C° 0 mm 4 mps 757 mmHg 75%
    23:00 -14°C° 0 mm 4 mps 757 mmHg 76%

    23 February, Saturday

    Time Temperature Precipitation Wind Pressure Humidity
    00:00 -14°C° 0 mm 4 mps 758 mmHg 78%
    01:00 -14°C° 0 mm 4 mps 758 mmHg 79%
    02:00 -15°C° 0 mm 4 mps 759 mmHg 80%
    03:00 -15°C° 0 mm 4 mps 759 mmHg 82%
    04:00 -14°C° 0 mm 3 mps 759 mmHg 83%
    05:00 -15°C° 0 mm 3 mps 759 mmHg 84%
    06:00 -15°C° 0 mm 3 mps 760 mmHg 84%
    07:00 -15°C° 0 mm 3 mps 760 mmHg 84%
    08:00 -15°C° 0 mm 3 mps 760 mmHg 84%
    09:00 -14°C° 0 mm 3 mps 760 mmHg 78%
    10:00 -12°C° 0 mm 3 mps 760 mmHg 73%
    11:00 -10°C° 0 mm 3 mps 761 mmHg 67%
    12:00 -10°C° 0 mm 3 mps 760 mmHg 66%
    13:00 -9°C° 0 mm 3 mps 760 mmHg 65%
    14:00 -8°C° 0 mm 3 mps 760 mmHg 64%
    15:00 -9°C° 0 mm 3 mps 760 mmHg 66%
    16:00 -8°C° 0 mm 2 mps 760 mmHg 69%
    17:00 -8°C° 0 mm 2 mps 759 mmHg 71%
    18:00 -8°C° 0 mm 2 mps 759 mmHg 72%
    19:00 -8°C° 0 mm 2 mps 759 mmHg 74%
    20:00 -7°C° 0 mm 1 mps 759 mmHg 75%
    21:00 -8°C° 0.1 mm 2 mps 759 mmHg 78%
    22:00 -8°C° 0.1 mm 2 mps 758 mmHg 81%
    23:00 -8°C° 0.1 mm 2 mps 758 mmHg 84%

    24 February, Sunday

    Time Temperature Precipitation Wind Pressure Humidity
    00:00 -8°C° 0.1 mm 2 mps 757 mmHg 86%
    01:00 -7°C° 0.1 mm 2 mps 757 mmHg 88%
    02:00 -7°C° 0.1 mm 2 mps 757 mmHg 90%
    03:00 -7°C° 0.2 mm 2 mps 757 mmHg 91%
    04:00 -7°C° 0.2 mm 2 mps 756 mmHg 92%
    05:00 -6°C° 0.2 mm 2 mps 756 mmHg 93%
    06:00 -6°C° 0.1 mm 2 mps 756 mmHg 93%
    07:00 -4°C° 0.1 mm 1 mps 756 mmHg 93%
    08:00 -4°C° 0.1 mm 1 mps 756 mmHg 93%
    09:00 -3°C° 0 mm 1 mps 757 mmHg 91%
    10:00 -2°C° 0 mm 1 mps 757 mmHg 89%
    11:00 -1°C° 0 mm 1 mps 757 mmHg 87%
    12:00 0°C° 0 mm 1 mps 757 mmHg 87%
    13:00 0°C° 0 mm 1 mps 757 mmHg 86%
    14:00 +1°C° 0 mm 1 mps 757 mmHg 86%
    15:00 0°C° 0 mm 1 mps 757 mmHg 89%
    16:00 0°C° 0 mm 1 mps 757 mmHg 92%
    17:00 0°C° 0 mm 1 mps 757 mmHg 94%
    18:00 -1°C° 0 mm 1 mps 757 mmHg 95%
    19:00 -1°C° 0 mm 1 mps 757 mmHg 96%
    20:00 -2°C° 0 mm 1 mps 757 mmHg 97%
    21:00 -1°C° 0 mm 1 mps 757 mmHg 97%
    22:00 -1°C° 0 mm 1 mps 757 mmHg 97%
    23:00 -1°C° 0 mm 1 mps 757 mmHg 97%

    25 February, Monday

    Time Temperature Precipitation Wind Pressure Humidity
    00:00 -1°C° 0 mm 1 mps 757 mmHg 96%
    01:00 -3°C° 0 mm 2 mps 756 mmHg 95%
    02:00 -3°C° 0 mm 2 mps 756 mmHg 95%
    03:00 -2°C° 0 mm 2 mps 755 mmHg 94%
    04:00 -2°C° 0 mm 2 mps 755 mmHg 93%
    05:00 -2°C° 0 mm 2 mps 754 mmHg 92%
    06:00 -2°C° 0 mm 3 mps 754 mmHg 93%
    07:00 -2°C° 0 mm 3 mps 753 mmHg 93%
    08:00 -2°C° 0 mm 3 mps 753 mmHg 94%
    09:00 -1°C° 0.1 mm 3 mps 753 mmHg 94%
    10:00 -1°C° 0.1 mm 3 mps 752 mmHg 93%
    11:00 0°C° 0.1 mm 3 mps 752 mmHg 92%
    12:00 0°C° 0 mm 3 mps 752 mmHg 90%
    13:00 0°C° 0 mm 3 mps 751 mmHg 87%
    14:00 0°C° 0 mm 3 mps 751 mmHg 85%
    15:00 0°C° 0.1 mm 3 mps 751 mmHg 86%
    16:00 0°C° 0.1 mm 3 mps 751 mmHg 86%
    17:00 -1°C° 0.1 mm 3 mps 751 mmHg 87%
    18:00 -1°C° 0 mm 3 mps 751 mmHg 87%
    19:00 -1°C° 0 mm 3 mps 751 mmHg 87%
    20:00 -2°C° 0 mm 3 mps 751 mmHg 87%
    21:00 -2°C° 0 mm 3 mps 751 mmHg 89%
    22:00 -3°C° 0 mm 2 mps 751 mmHg 91%
    23:00 -3°C° 0 mm 2 mps 751 mmHg 93%
    Show more